Flag for U.S.A. Weather past 2 weeks in Anchorage, Alaska, U.S.A.

Now
57 °F

Passing clouds.


Feels Like: 57 °F
Forecast: 56 / 63 °F
Wind: No wind

Location: Lake Hood Seaplane

Current Time: Aug 22, 2014 at 4:53:59 AM

Latest Report: Aug 22, 2014 at 3:53 AM


Visibility: 10 mi

Pressure: 30.20 "Hg

Humidity: 83%

Dew point: 52 °F

Location of AnchorageLocation

Historic Weather in Anchorage — Graph

°F

Anchorage temperature yesterday

Maximum temperature yesterday: 69 °F (at 4:53 PM)
Minimum temperature yesterday: 54 °F (at 5:02 AM)
Average temperature yesterday: 59 °F

Past Weeks' High & Low Weather Summary

 TemperatureHumidityPressure
High70 °F (Aug 10, 4:53 PM)100% (Aug 21, 5:02 AM)30.20 "Hg (Aug 21, 5:02 AM)
Low52 °F (Aug 19, 5:53 AM)51% (Aug 21, 4:53 PM)29.58 "Hg (Aug 16, 5:53 PM)
Average59 °F75%29.76 "Hg
* Reported Aug 7 3:53 AM — Aug 22 3:53 AM, Anchorage, Weather by CustomWeather, © 2014

Note: Actual official high and low records may vary slightly from our data, if they occured in-between our weather recording intervals... More about our weather records

Advertising

Anchorage weather history for previous 24 hours

 ConditionsComfort  
Time TempWeatherWind HumidityBarometerVisibility
3:53 AM
Aug 22
57 °FPassing clouds.No wind83%30.20 "Hg10 mi
2:53 AM58 °FPassing clouds.3 mph84%30.20 "Hg10 mi
1:53 AM59 °FPassing clouds.3 mph81%30.19 "Hg10 mi
12:53 AM60 °FOvercast.No wind80%30.18 "Hg10 mi
11:53 PM
Aug 21
61 °FOvercast.5 mph72%30.18 "Hg10 mi
10:53 PM61 °FOvercast.No wind75%30.16 "Hg10 mi
9:53 PM61 °FLight rain. Mostly cloudy.No wind78%30.16 "Hg10 mi
8:53 PM64 °FPartly sunny.8 mph68%30.15 "Hg10 mi
7:53 PM67 °FSunny.5 mph63%30.14 "Hg10 mi
6:53 PM68 °FSunny.6 mph57%30.14 "Hg10 mi
5:53 PM69 °FSunny.5 mph53%30.15 "Hg10 mi
4:53 PM69 °FSunny.5 mph51%30.16 "Hg10 mi
3:53 PM68 °FSunny.5 mph53%30.17 "Hg10 mi
2:53 PM66 °FSunny.No wind59%30.18 "Hg10 mi
1:53 PM62 °FSunny.3 mph70%30.20 "Hg10 mi
1:01 PM59 °FPassing clouds.3 mph77%30.20 "Hg10 mi
11:53 AM57 °FLow clouds.6 mph83%30.20 "Hg10 mi
10:53 AM56 °FLow clouds.5 mph90%30.20 "Hg7 mi
9:57 AM55 °FFog.3 mph94%30.19 "Hg6 mi
8:53 AM54 °FFog.No wind97%30.20 "Hg1 mi
8:04 AM54 °FFog.3 mph100%30.20 "Hg1 mi
7:52 AM54 °FFog.3 mph97%30.20 "Hg2 mi
6:53 AM54 °FFog.No wind93%30.19 "Hg4 mi
5:53 AM54 °FFog.No wind97%30.18 "Hg1 mi
5:02 AM54 °FFog.No wind100%30.18 "Hg1 mi
4:53 AM54 °FFog.No wind97%30.18 "Hg1 mi
Weather by CustomWeather, © 2014

See weather overviewHow to use our weather pages